#�ϑ�����,���ϕ���,���ϕ���,�ő啗��,�ő啗����������,�ő�u�ԕ���,�ő�u�ԕ�����������
#(�N����),(m/s)   ,(16����),(m/s)   ,(16����)        ,(m/s)       ,(16����)            
2018/6/1 0:01,3.1,12,3.1,16,3.1,8
2018/6/1 0:02,2.9,12,3.1,16,1.8,12
2018/6/1 0:03,2.5,11,2.9,16,2.6,12
2018/6/1 0:04,2.3,11,2.5,16,2.7,13
2018/6/1 0:05,2.2,11,2.3,15,3.5,11
2018/6/1 0:06,2.1,11,2.3,15,5.4,9
2018/6/1 0:07,1.9,11,2.1,14,2.5,9
2018/6/1 0:08,2,11,2,14,6.5,15
2018/6/1 0:09,2,11,2,13,4.4,12
2018/6/1 0:10,2.1,12,2.1,12,6.2,15
2018/6/1 0:11,2.2,12,2.2,12,5.2,12
2018/6/1 0:12,2.3,12,2.3,12,5.2,16
2018/6/1 0:13,2.5,13,2.5,11,5.7,14
2018/6/1 0:14,2.7,13,2.7,13,6,14
2018/6/1 0:15,3,14,3,14,8.7,15
2018/6/1 0:16,3.2,14,3.2,14,7.5,15
2018/6/1 0:17,3.5,15,3.5,15,5.5,15
2018/6/1 0:18,3.6,15,3.6,15,5.5,15
2018/6/1 0:19,3.7,15,3.7,15,3.9,16
2018/6/1 0:20,3.7,15,3.7,15,4.2,15
2018/6/1 0:21,3.6,15,3.7,15,3.7,16
2018/6/1 0:22,3.7,15,3.7,15,6.2,16
2018/6/1 0:23,3.5,16,3.7,15,3.6,2
2018/6/1 0:24,3.4,16,3.5,15,3.5,2
2018/6/1 0:25,3.2,16,3.4,15,5.1,16
2018/6/1 0:26,2.8,16,3.2,15,3.2,16
2018/6/1 0:27,2.4,16,2.8,15,0.5,14
2018/6/1 0:28,2.1,16,2.4,15,0.8,2
2018/6/1 0:29,1.8,1,2,15,1,5
2018/6/1 0:30,1.5,1,1.8,15,0.3,14
2018/6/1 0:31,1.4,1,1.5,15,0.6,4
2018/6/1 0:32,1,2,1.4,15,0.3,3
2018/6/1 0:33,0.9,2,1,16,0.1,4
2018/6/1 0:34,0.7,2,0.8,16,0.8,2
2018/6/1 0:35,0.4,2,0.7,16,1.6,2
2018/6/1 0:36,0.3,2,0.4,16,0.8,1
2018/6/1 0:37,0.3,3,0.3,16,1.5,16
2018/6/1 0:38,0.3,2,0.3,16,0.5,15
2018/6/1 0:39,0.3,2,0.3,1,0.9,16
2018/6/1 0:40,0.4,2,0.4,1,1.3,15
2018/6/1 0:41,0.4,2,0.4,1,0.4,4
2018/6/1 0:42,0.4,2,0.4,2,0.9,6
2018/6/1 0:43,0.5,2,0.5,2,1.4,4
2018/6/1 0:44,0.6,2,0.6,2,1.9,3
2018/6/1 0:45,0.7,2,0.7,2,1.9,3
2018/6/1 0:46,0.7,3,0.7,2,2.1,4
2018/6/1 0:47,0.7,3,0.7,2,1.6,3
2018/6/1 0:48,0.8,3,0.8,3,3.1,15
2018/6/1 0:49,0.9,3,0.9,3,2.7,15
2018/6/1 0:50,0.8,3,0.9,3,0.8,3
2018/6/1 0:51,0.9,3,0.9,3,1.3,14
2018/6/1 0:52,1,2,1,2,1.8,16
2018/6/1 0:53,1.1,16,1.1,1,3.5,14
2018/6/1 0:54,1.2,16,1.2,16,3.7,15
2018/6/1 0:55,1.5,15,1.5,15,6.9,16
2018/6/1 0:56,1.8,15,1.8,15,8.5,16
2018/6/1 0:57,2.1,15,2.1,15,7.1,16
2018/6/1 0:58,2.5,15,2.5,15,6.1,16
2018/6/1 0:59,2.7,15,2.7,15,5.4,1
2018/6/1 1:00,3.1,15,3.1,15,7.1,16
2018/6/1 1:01,3.6,15,3.6,15,8.2,16
2018/6/1 1:02,3.9,16,3.9,16,7,16
2018/6/1 1:03,3.7,16,3.9,16,2.9,2
2018/6/1 1:04,3.6,16,3.7,16,2.1,16
2018/6/1 1:05,3.4,16,3.6,16,2.7,1
2018/6/1 1:06,3.5,16,3.5,16,7.8,16
2018/6/1 1:07,3.4,16,3.6,16,7.6,14
2018/6/1 1:08,3.2,16,3.4,16,4.4,1
2018/6/1 1:09,3.1,16,3.2,16,4.5,2
2018/6/1 1:10,2.9,16,3.1,16,6.3,15
2018/6/1 1:11,2.8,16,2.9,16,6.1,16
2018/6/1 1:12,2.8,16,2.8,16,6.3,16
2018/6/1 1:13,3.1,16,3.1,16,8.4,15
2018/6/1 1:14,3.3,16,3.3,16,5.7,16
2018/6/1 1:15,3.7,16,3.7,16,7.9,14
2018/6/1 1:16,3.4,16,3.6,16,5,16
2018/6/1 1:17,3.2,16,3.3,16,3.2,16
2018/6/1 1:18,3.1,15,3.2,16,2.6,11
2018/6/1 1:19,3.1,15,3.1,16,4.4,2
2018/6/1 1:20,3.2,15,3.2,16,5.7,15
2018/6/1 1:21,3.1,15,3.2,16,4.9,14
2018/6/1 1:22,2.8,15,3.1,16,3.1,14
2018/6/1 1:23,2.5,15,2.8,16,1.3,14
2018/6/1 1:24,2.3,14,2.5,16,2.1,12
2018/6/1 1:25,2,14,2.3,16,3.1,14
2018/6/1 1:26,1.9,14,2,16,4.1,2
2018/6/1 1:27,2.1,14,2.1,16,6.4,16
2018/6/1 1:28,2,14,2.1,15,3.2,15
2018/6/1 1:29,1.9,14,2,15,2.7,15
2018/6/1 1:30,1.8,14,1.9,15,3.5,16
2018/6/1 1:31,1.8,15,1.8,15,6.3,16
2018/6/1 1:32,2.1,15,2.1,15,6.5,16
2018/6/1 1:33,2.4,15,2.4,15,7.5,16
2018/6/1 1:34,2.6,15,2.6,15,5.7,14
2018/6/1 1:35,2.6,16,2.7,15,4.2,2
2018/6/1 1:36,2.8,16,2.8,16,7.1,16
2018/6/1 1:37,2.8,16,2.8,16,6.2,15
2018/6/1 1:38,3.2,16,3.2,16,7.8,16
2018/6/1 1:39,3.8,16,3.8,16,11.3,1
2018/6/1 1:40,4,16,4,16,4.5,16
2018/6/1 1:41,4,16,4,16,4.8,15
2018/6/1 1:42,3.8,16,4,16,5.5,16
2018/6/1 1:43,3.8,16,3.8,16,6.9,1
2018/6/1 1:44,3.6,16,3.9,16,3.9,15
2018/6/1 1:45,3.9,16,3.9,16,6.7,1
2018/6/1 1:46,3.9,16,3.9,16,5.1,16
2018/6/1 1:47,3.9,16,3.9,16,8.1,14
2018/6/1 1:48,3.7,16,3.9,16,6.8,15
2018/6/1 1:49,3.4,16,3.7,16,6.3,14
2018/6/1 1:50,3.4,16,3.4,16,5.4,16
2018/6/1 1:51,3.3,16,3.4,16,4.3,1
2018/6/1 1:52,3.3,16,3.3,16,5.2,15
2018/6/1 1:53,3.1,16,3.3,16,3.1,16
2018/6/1 1:54,3.1,16,3.1,16,3.3,1
2018/6/1 1:55,3,16,3.1,16,6.7,14
2018/6/1 1:56,3,16,3.1,16,6,16
2018/6/1 1:57,3.1,16,3.1,16,6.3,16
2018/6/1 1:58,3.2,1,3.2,16,6,2
2018/6/1 1:59,3,1,3.2,16,4.3,1
2018/6/1 2:00,2.7,1,3,16,2.1,15
2018/6/1 2:01,2.6,1,2.7,16,2.7,16
2018/6/1 2:02,2.6,1,2.6,16,4.9,15
2018/6/1 2:03,2.8,1,2.8,1,6.2,15
2018/6/1 2:04,2.9,1,2.9,1,4.8,15
2018/6/1 2:05,2.9,16,3,1,3.7,15
2018/6/1 2:06,2.8,16,2.8,1,5.1,15
2018/6/1 2:07,2.7,16,2.9,1,5.8,15
2018/6/1 2:08,2.5,16,2.7,1,6.3,13
2018/6/1 2:09,2.6,15,2.6,1,6.5,12
2018/6/1 2:10,2.8,15,2.8,1,4.5,15
2018/6/1 2:11,3,15,3,1,5.6,13
2018/6/1 2:12,3.1,15,3.1,15,6.3,15
2018/6/1 2:13,3,14,3.1,15,8.1,14
2018/6/1 2:14,3,15,3,15,6.1,1
2018/6/1 2:15,3.3,15,3.3,15,9.7,16
2018/6/1 2:16,3.4,15,3.4,15,8.1,15
2018/6/1 2:17,3.5,15,3.5,15,6.3,15
2018/6/1 2:18,3.7,15,3.7,15,9.9,16
2018/6/1 2:19,3.6,15,3.6,15,4.4,16
2018/6/1 2:20,3.7,15,3.7,15,5.8,15
2018/6/1 2:21,3.6,16,3.7,15,3.9,15
2018/6/1 2:22,3.4,16,3.6,15,2.2,1
2018/6/1 2:23,3.1,16,3.4,15,1.4,12
2018/6/1 2:24,2.8,16,3.1,15,2,4
2018/6/1 2:25,2.4,16,2.8,15,2,4
2018/6/1 2:26,2.1,16,2.4,15,6,2
2018/6/1 2:27,2.1,1,2.2,15,4.9,16
2018/6/1 2:28,1.8,1,2.1,15,2.2,15
2018/6/1 2:29,1.5,1,1.8,15,1.4,15
2018/6/1 2:30,1.2,1,1.5,15,1.3,10
2018/6/1 2:31,1.2,1,1.2,16,3.7,10
2018/6/1 2:32,1.3,16,1.3,16,4.4,9
2018/6/1 2:33,1.6,12,1.6,16,5.6,9
2018/6/1 2:34,1.9,10,1.9,16,7,9
2018/6/1 2:35,2.1,10,2.1,16,5.5,10
2018/6/1 2:36,2.2,10,2.2,16,4.8,8
2018/6/1 2:37,2.3,9,2.3,9,3.9,9
2018/6/1 2:38,2.4,9,2.4,9,3.8,9
2018/6/1 2:39,2.4,9,2.4,9,2,8
2018/6/1 2:40,2.7,9,2.7,9,3.7,7
2018/6/1 2:41,2.9,8,2.9,8,4.7,8
2018/6/1 2:42,2.9,8,2.9,8,5.1,8
2018/6/1 2:43,2.9,8,3,8,5.1,7
2018/6/1 2:44,2.8,8,2.9,8,3.8,7
2018/6/1 2:45,2.7,7,2.8,8,3,6
2018/6/1 2:46,2.5,7,2.7,8,2.7,6
2018/6/1 2:47,2.3,7,2.5,8,3.3,5
2018/6/1 2:48,2.3,6,2.3,8,2.9,5
2018/6/1 2:49,2.4,6,2.4,8,2.1,4
2018/6/1 2:50,2.2,6,2.4,8,1.6,6
2018/6/1 2:51,2,6,2.1,8,2.1,3
2018/6/1 2:52,2,5,2,8,3.7,4
2018/6/1 2:53,1.9,5,2,8,3.5,4
2018/6/1 2:54,1.9,5,1.9,8,3.5,4
2018/6/1 2:55,1.9,4,1.9,7,3.3,4
2018/6/1 2:56,2.1,4,2.1,7,4.7,3
2018/6/1 2:57,2.2,4,2.2,6,3.9,3
2018/6/1 2:58,2.3,4,2.3,6,3.3,4
2018/6/1 2:59,2.3,4,2.3,6,3,5
2018/6/1 3:00,2.4,4,2.4,4,2.9,4
2018/6/1 3:01,2.4,4,2.5,4,3,2
2018/6/1 3:02,2.3,4,2.4,4,2.4,2
2018/6/1 3:03,2.3,4,2.3,4,3.2,1
2018/6/1 3:04,2.2,3,2.3,4,3.6,1
2018/6/1 3:05,2.2,3,2.2,4,2.6,2
2018/6/1 3:06,2.1,3,2.2,4,3.1,3
2018/6/1 3:07,2,3,2,4,4.1,4
2018/6/1 3:08,2.1,3,2.1,4,4.1,5
2018/6/1 3:09,2.2,3,2.2,4,4.1,3
2018/6/1 3:10,2.3,3,2.3,4,4.8,3
2018/6/1 3:11,2.3,3,2.3,4,3.8,3
2018/6/1 3:12,2.4,3,2.4,3,4.1,2
2018/6/1 3:13,2.4,3,2.4,3,4.1,3
2018/6/1 3:14,2.6,3,2.6,3,4.7,4
2018/6/1 3:15,2.7,3,2.7,3,3.7,3
2018/6/1 3:16,2.8,3,2.8,3,3.7,4
2018/6/1 3:17,2.8,3,2.8,3,4.2,5
2018/6/1 3:18,2.7,4,2.8,3,4.3,7
2018/6/1 3:19,2.7,4,2.7,3,3.6,6
2018/6/1 3:20,2.6,4,2.7,3,1.9,6
2018/6/1 3:21,2.5,5,2.5,3,2.9,7
2018/6/1 3:22,2.4,5,2.5,3,2.9,8
2018/6/1 3:23,2.2,5,2.4,3,2.2,4
2018/6/1 3:24,1.9,6,2.2,3,1.9,6
2018/6/1 3:25,1.8,6,1.9,3,2.1,6
2018/6/1 3:26,1.5,6,1.7,3,1.6,5
2018/6/1 3:27,1.3,6,1.5,3,0.8,2
2018/6/1 3:28,1.1,6,1.3,4,0.8,1
2018/6/1 3:29,0.9,6,1.1,4,0.8,5
2018/6/1 3:30,0.8,6,0.9,4,1.1,5
2018/6/1 3:31,0.7,5,0.8,5,1.1,7
2018/6/1 3:32,0.7,5,0.7,5,1.8,7
2018/6/1 3:33,0.7,5,0.7,5,2.1,8
2018/6/1 3:34,0.8,6,0.8,6,2.2,9
2018/6/1 3:35,0.7,5,0.7,6,1,6
2018/6/1 3:36,0.7,5,0.7,6,1,3
2018/6/1 3:37,0.8,5,0.8,6,1.3,3
2018/6/1 3:38,0.9,5,0.9,6,1.8,5
2018/6/1 3:39,1,5,1,5,2,5
2018/6/1 3:40,1,6,1.1,6,2,6
2018/6/1 3:41,1,6,1,6,1,1
2018/6/1 3:42,1,5,1,6,1.1,16
2018/6/1 3:43,0.9,5,1,6,1.1,1
2018/6/1 3:44,0.8,4,0.9,6,1.6,1
2018/6/1 3:45,0.8,3,0.8,6,1.8,14
2018/6/1 3:46,0.9,2,0.9,6,1.8,13
2018/6/1 3:47,0.8,16,0.9,6,1.1,14
2018/6/1 3:48,0.9,15,0.9,6,2.1,15
2018/6/1 3:49,0.8,15,0.8,6,1.6,15
2018/6/1 3:50,0.7,15,0.8,6,0.5,15
2018/6/1 3:51,0.7,14,0.7,6,0.6,11
2018/6/1 3:52,0.7,14,0.7,5,0.4,13
2018/6/1 3:53,0.6,13,0.6,5,0.8,10
2018/6/1 3:54,0.6,13,0.6,3,0.5,13
2018/6/1 3:55,0.6,13,0.7,3,1.3,10
2018/6/1 3:56,0.6,12,0.6,2,1.3,10
2018/6/1 3:57,0.6,12,0.6,15,1.9,15
2018/6/1 3:58,0.7,12,0.7,15,3.1,16
2018/6/1 3:59,0.9,12,0.9,12,3.9,16
2018/6/1 4:00,1,13,1,13,3.3,2
2018/6/1 4:01,1.3,14,1.3,14,4.7,2
2018/6/1 4:02,1.5,15,1.5,15,4.4,16
2018/6/1 4:03,1.7,16,1.7,15,4.5,16
2018/6/1 4:04,1.9,16,1.9,16,4.4,15
2018/6/1 4:05,2.1,16,2.1,16,5.2,15
2018/6/1 4:06,2.2,1,2.2,1,2.6,3
2018/6/1 4:07,2.3,1,2.3,1,3,3
2018/6/1 4:08,2,1,2.2,1,0.4,4
2018/6/1 4:09,1.8,2,2,1,1.5,10
2018/6/1 4:10,1.8,2,1.8,1,2.1,2
2018/6/1 4:11,1.7,2,1.8,1,2.7,2
2018/6/1 4:12,1.6,2,1.7,1,2.9,3
2018/6/1 4:13,1.5,3,1.6,1,3.3,3
2018/6/1 4:14,1.5,3,1.6,1,3.6,5
2018/6/1 4:15,1.3,4,1.5,1,2.6,16
2018/6/1 4:16,1.2,4,1.3,1,1,10
2018/6/1 4:17,1.1,4,1.2,1,0.9,5
2018/6/1 4:18,1.3,4,1.3,1,4.4,4
2018/6/1 4:19,1.6,4,1.6,2,6.5,3
2018/6/1 4:20,1.6,4,1.6,2,5.1,2
2018/6/1 4:21,1.6,4,1.6,2,4.5,12
2018/6/1 4:22,1.7,4,1.8,4,3.8,12
2018/6/1 4:23,1.8,3,1.8,4,3.2,15
2018/6/1 4:24,1.9,16,1.9,1,3.8,14
2018/6/1 4:25,2,12,2,12,3.2,11
2018/6/1 4:26,2.1,13,2.1,13,2.5,14
2018/6/1 4:27,2.3,13,2.3,13,3.9,16
2018/6/1 4:28,2.2,13,2.3,13,2.1,15
2018/6/1 4:29,2,13,2.2,13,3,15
2018/6/1 4:30,2,13,2,13,3.2,15
2018/6/1 4:31,2,13,2.1,13,2.2,11
2018/6/1 4:32,1.9,13,2,13,2.1,11
2018/6/1 4:33,1.8,13,1.9,13,1.4,5
2018/6/1 4:34,1.6,14,1.8,13,2.1,3
2018/6/1 4:35,1.6,15,1.6,13,2.7,4
2018/6/1 4:36,1.6,16,1.6,13,3,5
2018/6/1 4:37,1.5,2,1.6,13,2.2,4
2018/6/1 4:38,1.6,3,1.6,13,1.9,5
2018/6/1 4:39,1.5,4,1.6,13,1.8,5
2018/6/1 4:40,1.4,4,1.5,13,1.8,16
2018/6/1 4:41,1.3,3,1.4,13,1.4,1
2018/6/1 4:42,1.2,3,1.2,13,2.1,15
2018/6/1 4:43,1.2,3,1.3,13,1.5,8
2018/6/1 4:44,1.1,3,1.2,14,1.4,8
2018/6/1 4:45,1.1,2,1.1,15,2,11
2018/6/1 4:46,1,1,1.1,16,1.8,11
2018/6/1 4:47,1,14,1,3,1,11
2018/6/1 4:48,0.9,13,0.9,3,1.4,9
2018/6/1 4:49,0.8,13,0.9,4,0.5,12
2018/6/1 4:50,0.8,12,0.8,4,0.5,9
2018/6/1 4:51,0.8,11,0.8,3,3.2,9
2018/6/1 4:52,0.8,11,0.8,3,2.2,11
2018/6/1 4:53,0.9,11,0.9,3,2.7,1
2018/6/1 4:54,1.2,12,1.2,12,6.4,16
2018/6/1 4:55,1.3,12,1.3,12,5.4,16
2018/6/1 4:56,1.4,13,1.4,13,5.1,1
2018/6/1 4:57,1.5,15,1.5,14,4.1,1
2018/6/1 4:58,1.5,15,1.5,14,2.2,2
2018/6/1 4:59,1.7,15,1.7,15,3.8,15
2018/6/1 5:00,2,15,2,15,4.1,15
2018/6/1 5:01,2.1,15,2.1,15,2.9,15
2018/6/1 5:02,2.2,16,2.2,16,3.8,15
2018/6/1 5:03,2.3,16,2.3,16,2.7,15
2018/6/1 5:04,2.2,16,2.3,16,4.2,3
2018/6/1 5:05,2.2,1,2.2,16,3.6,6
2018/6/1 5:06,2,16,2.2,16,1.9,8
2018/6/1 5:07,1.9,16,2,16,1.4,10
2018/6/1 5:08,2,15,2,16,2.6,9
2018/6/1 5:09,1.8,13,2,16,1.9,9
2018/6/1 5:10,1.7,9,1.8,16,2.9,11
2018/6/1 5:11,1.8,9,1.8,16,3.7,10
2018/6/1 5:12,1.7,9,1.8,16,3.2,9
2018/6/1 5:13,1.6,9,1.7,16,2.7,9
2018/6/1 5:14,1.6,10,1.6,16,4.3,13
2018/6/1 5:15,1.6,11,1.6,1,4.5,16
2018/6/1 5:16,1.7,11,1.7,16,3.2,14
2018/6/1 5:17,2,12,2,15,5.2,15
2018/6/1 5:18,2.2,13,2.2,13,5.7,15
2018/6/1 5:19,2.3,14,2.3,13,4.3,16
2018/6/1 5:20,2.3,14,2.3,13,3.3,1
2018/6/1 5:21,2.2,15,2.3,13,4.3,1
2018/6/1 5:22,2.2,15,2.2,13,2.1,15
2018/6/1 5:23,2.2,16,2.2,13,2.2,16
2018/6/1 5:24,2.2,16,2.2,13,3,2
2018/6/1 5:25,2.1,16,2.2,13,3.3,1
2018/6/1 5:26,2.2,1,2.2,13,4.3,1
2018/6/1 5:27,2.1,1,2.2,13,3,2
2018/6/1 5:28,1.8,1,2,13,2.1,2
2018/6/1 5:29,1.8,1,1.8,14,3.1,1
2018/6/1 5:30,1.9,1,1.9,14,3.5,3
2018/6/1 5:31,2,2,2,15,3.5,3
2018/6/1 5:32,2,2,2.1,15,3.8,3
2018/6/1 5:33,2.1,2,2.1,16,3.5,2
2018/6/1 5:34,2,2,2.1,16,2.1,2
2018/6/1 5:35,1.9,2,2,16,1.6,5
2018/6/1 5:36,1.8,3,1.9,1,2.7,3
2018/6/1 5:37,1.7,3,1.8,2,2.5,3
2018/6/1 5:38,1.7,3,1.7,2,1.4,4
2018/6/1 5:39,1.6,3,1.7,2,1.8,4
2018/6/1 5:40,1.4,3,1.6,2,0.5,4
2018/6/1 5:41,1.2,3,1.4,2,1.3,1
2018/6/1 5:42,1,3,1.1,2,1,3
2018/6/1 5:43,0.9,3,1,2,1.9,2
2018/6/1 5:44,0.9,3,0.9,2,2.4,3
2018/6/1 5:45,1,2,1,2,2.7,3
2018/6/1 5:46,1,3,1,3,2.4,3
2018/6/1 5:47,0.9,3,0.9,3,1.3,3
2018/6/1 5:48,0.9,3,0.9,3,1.1,3
2018/6/1 5:49,0.8,2,0.9,3,0.5,1
2018/6/1 5:50,0.8,2,0.8,3,0.5,15
2018/6/1 5:51,0.8,2,0.8,3,0.4,4
2018/6/1 5:52,0.9,2,0.9,3,1.9,1
2018/6/1 5:53,0.9,2,0.9,3,2.6,3
2018/6/1 5:54,1,2,1,3,2.5,3
2018/6/1 5:55,0.9,2,1,2,1.6,7
2018/6/1 5:56,0.9,3,0.9,2,1.9,7
2018/6/1 5:57,0.9,2,0.9,2,1.4,9
2018/6/1 5:58,0.9,2,0.9,2,2.4,11
2018/6/1 5:59,1.1,1,1.1,1,2.5,12
2018/6/1 6:00,1.3,13,1.3,14,2.6,13
2018/6/1 6:01,1.4,11,1.4,12,1.9,12
2018/6/1 6:02,1.4,11,1.4,12,1.9,12
2018/6/1 6:03,1.4,11,1.4,12,1.8,12
2018/6/1 6:04,1.3,11,1.4,12,1.5,9
2018/6/1 6:05,1.3,11,1.3,12,3,8
2018/6/1 6:06,1.4,11,1.4,12,3.2,7
2018/6/1 6:07,1.4,11,1.4,12,2.4,9
2018/6/1 6:08,1.5,11,1.5,11,3.1,9
2018/6/1 6:09,1.4,10,1.5,11,2.7,8
2018/6/1 6:10,1.5,10,1.5,11,3.1,8
2018/6/1 6:11,1.6,9,1.6,9,3.2,10
2018/6/1 6:12,1.6,9,1.6,9,2.9,9
2018/6/1 6:13,1.6,9,1.6,9,2.7,9
2018/6/1 6:14,1.7,9,1.7,9,2.9,8
2018/6/1 6:15,1.7,9,1.8,9,2,9
2018/6/1 6:16,1.6,10,1.7,9,1.6,16
2018/6/1 6:17,1.6,9,1.6,9,1.8,5
2018/6/1 6:18,1.6,8,1.6,9,2.7,5
2018/6/1 6:19,1.6,8,1.6,9,2.5,4
2018/6/1 6:20,1.6,7,1.6,9,2.5,6
2018/6/1 6:21,1.5,7,1.6,9,2.5,6
2018/6/1 6:22,1.3,6,1.4,9,1.3,8
2018/6/1 6:23,1.2,6,1.3,9,0.8,6
2018/6/1 6:24,1.1,6,1.2,9,1.3,6
2018/6/1 6:25,1.1,6,1.1,9,1.5,6
2018/6/1 6:26,1.1,6,1.1,10,1.8,6
2018/6/1 6:27,1.2,6,1.2,9,1.9,5
2018/6/1 6:28,1.1,6,1.2,8,1.9,5
2018/6/1 6:29,1,6,1.1,8,1,6
2018/6/1 6:30,0.9,6,1,7,1.6,6
2018/6/1 6:31,0.8,6,0.9,7,1.9,8
2018/6/1 6:32,0.8,6,0.9,6,1,6
2018/6/1 6:33,0.9,6,0.9,6,2.2,8
2018/6/1 6:34,0.9,6,0.9,6,2.4,8
2018/6/1 6:35,1,7,1,6,2.7,9
2018/6/1 6:36,1.1,7,1.1,6,2.6,8
2018/6/1 6:37,1.1,7,1.1,6,2.1,8
2018/6/1 6:38,1,8,1.1,6,1.4,15
2018/6/1 6:39,1,8,1,7,0.1,11
2018/6/1 6:40,0.9,8,1,7,0.3,11
2018/6/1 6:41,0.8,9,0.9,7,0.6,13
2018/6/1 6:42,0.9,10,0.9,7,1.3,11
2018/6/1 6:43,0.9,10,0.9,7,1,10
2018/6/1 6:44,0.8,10,0.9,7,1.5,7
2018/6/1 6:45,0.7,10,0.8,7,1.3,6
2018/6/1 6:46,0.6,10,0.7,7,1.3,5
2018/6/1 6:47,0.5,9,0.5,7,1,5
2018/6/1 6:48,0.5,8,0.5,8,0.5,4
2018/6/1 6:49,0.5,7,0.5,8,0.1,8
2018/6/1 6:50,0.5,7,0.5,8,0.8,6
2018/6/1 6:51,0.5,7,0.5,10,1,8
2018/6/1 6:52,0.5,7,0.6,10,1,8
2018/6/1 6:53,0.5,7,0.5,10,0.3,10
2018/6/1 6:54,0.4,7,0.4,10,0.8,9
2018/6/1 6:55,0.4,8,0.4,10,1.4,8
2018/6/1 6:56,0.4,8,0.4,7,1,9
2018/6/1 6:57,0.4,9,0.4,7,1.8,10
2018/6/1 6:58,0.5,9,0.5,7,2,8
2018/6/1 6:59,0.6,9,0.6,7,1.9,8
2018/6/1 7:00,0.7,9,0.7,9,3.1,8
2018/6/1 7:01,0.7,10,0.7,9,1.5,7
2018/6/1 7:02,0.7,10,0.7,9,1.6,9
2018/6/1 7:03,0.9,9,0.9,9,2.4,7
2018/6/1 7:04,1.1,9,1.1,9,3.3,5
2018/6/1 7:05,1.2,8,1.2,8,3.3,4
2018/6/1 7:06,1.4,7,1.4,7,2.2,2
2018/6/1 7:07,1.3,7,1.4,7,1.8,5
2018/6/1 7:08,1.3,7,1.3,7,1,12
2018/6/1 7:09,1.2,7,1.3,7,0.8,12
2018/6/1 7:10,1.1,6,1.2,7,1.1,4
2018/6/1 7:11,1.2,5,1.2,7,2.7,3
2018/6/1 7:12,1.3,4,1.3,7,2.7,2
2018/6/1 7:13,1.2,3,1.3,7,2.5,2
2018/6/1 7:14,1.2,3,1.2,7,1.6,2
2018/6/1 7:15,1,3,1.1,7,1.8,3
2018/6/1 7:16,1,3,1,7,1.9,6
2018/6/1 7:17,1.1,3,1.1,7,1.8,6
2018/6/1 7:18,1.1,4,1.1,7,1.5,6
2018/6/1 7:19,1.2,4,1.2,4,2.6,3
2018/6/1 7:20,1.3,3,1.3,4,1.4,4
2018/6/1 7:21,1.3,3,1.3,4,2.2,3
2018/6/1 7:22,1.3,4,1.3,4,2,4
2018/6/1 7:23,1.3,4,1.3,3,1.9,6
2018/6/1 7:24,1.2,5,1.3,3,1.9,6
2018/6/1 7:25,1.2,5,1.2,3,0.8,9
2018/6/1 7:26,1.1,5,1.2,3,1.8,6
2018/6/1 7:27,1.1,5,1.1,3,1.8,5
2018/6/1 7:28,1,5,1.1,3,0.5,9
2018/6/1 7:29,0.9,5,1,3,0.6,1
2018/6/1 7:30,0.9,5,0.9,3,0.6,5
2018/6/1 7:31,0.7,6,0.8,3,0.1,2
2018/6/1 7:32,0.6,6,0.7,4,1.1,11
2018/6/1 7:33,0.5,6,0.6,4,1,13
2018/6/1 7:34,0.5,7,0.5,5,0.8,12
2018/6/1 7:35,0.5,8,0.5,5,0.8,12
2018/6/1 7:36,0.3,9,0.5,5,0.1,10
2018/6/1 7:37,0.3,10,0.3,5,1.3,12
2018/6/1 7:38,0.4,11,0.4,5,2.4,13
2018/6/1 7:39,0.6,12,0.6,5,2.2,13
2018/6/1 7:40,0.7,12,0.7,5,2,12
2018/6/1 7:41,0.8,12,0.8,12,2,8
2018/6/1 7:42,0.9,12,0.9,12,2.2,12
2018/6/1 7:43,1,12,1,12,1.4,11
2018/6/1 7:44,1,12,1,12,1.4,12
2018/6/1 7:45,1,11,1,12,0.8,10
2018/6/1 7:46,1,11,1,12,0.4,7
2018/6/1 7:47,1,12,1,12,0.5,3
2018/6/1 7:48,0.9,11,1,12,1,3
2018/6/1 7:49,0.7,10,0.9,12,0.3,4
2018/6/1 7:50,0.6,9,0.7,12,0.3,8
2018/6/1 7:51,0.5,9,0.6,12,0.1,10
2018/6/1 7:52,0.4,7,0.5,12,0.6,4
2018/6/1 7:53,0.3,6,0.4,12,0.5,3
2018/6/1 7:54,0.3,6,0.3,12,1,5
2018/6/1 7:55,0.3,5,0.3,11,1,8
2018/6/1 7:56,0.4,5,0.4,11,2,8
2018/6/1 7:57,0.4,6,0.4,12,1.3,8
2018/6/1 7:58,0.5,7,0.5,11,2.1,9
2018/6/1 7:59,0.5,7,0.5,10,2,9
2018/6/1 8:00,0.6,7,0.6,9,1.6,9
2018/6/1 8:01,0.7,7,0.7,7,1.4,10
2018/6/1 8:02,0.7,8,0.7,7,1.4,8
2018/6/1 8:03,0.8,8,0.8,8,2.1,9
2018/6/1 8:04,0.9,9,0.9,8,2.5,9
2018/6/1 8:05,1,9,1,9,2.6,8
2018/6/1 8:06,1.1,9,1.1,9,2.9,9
2018/6/1 8:07,1.2,9,1.2,9,2.5,8
2018/6/1 8:08,1.2,9,1.2,9,1.8,8
2018/6/1 8:09,1.3,9,1.3,9,1.6,10
2018/6/1 8:10,1.3,9,1.3,9,3.5,9
2018/6/1 8:11,1.4,9,1.4,9,2.7,9
2018/6/1 8:12,1.4,9,1.4,9,2.9,9
2018/6/1 8:13,1.4,9,1.4,9,2.7,8
2018/6/1 8:14,1.5,9,1.5,9,3,9
2018/6/1 8:15,1.5,9,1.5,9,3.2,10
2018/6/1 8:16,1.4,10,1.5,9,2.2,9
2018/6/1 8:17,1.4,10,1.4,9,3.7,10
2018/6/1 8:18,1.6,10,1.6,10,4.7,9
2018/6/1 8:19,1.8,10,1.8,10,5.1,9
2018/6/1 8:20,1.8,9,1.8,10,4.2,9
2018/6/1 8:21,1.8,9,1.9,10,3,9
2018/6/1 8:22,1.9,9,1.9,10,3,7
2018/6/1 8:23,2,9,2,9,3.8,9
2018/6/1 8:24,2,9,2,9,3.3,8
2018/6/1 8:25,2,8,2,9,3.9,7
2018/6/1 8:26,2,8,2.1,8,2.5,8
2018/6/1 8:27,1.9,8,2,8,3.5,16
2018/6/1 8:28,1.8,8,1.9,8,3,14
2018/6/1 8:29,1.6,9,1.8,8,3.8,12
2018/6/1 8:30,1.5,9,1.6,8,2.1,1
2018/6/1 8:31,1.5,10,1.6,8,1.8,15
2018/6/1 8:32,1.6,12,1.6,8,4.1,15
2018/6/1 8:33,1.6,14,1.6,8,2.7,14
2018/6/1 8:34,1.5,14,1.5,8,1.8,13
2018/6/1 8:35,1.5,15,1.5,8,4.1,16
2018/6/1 8:36,1.5,15,1.5,8,2.4,16
2018/6/1 8:37,1.4,15,1.5,8,0.6,13
2018/6/1 8:38,1.3,15,1.4,8,1.1,5
2018/6/1 8:39,1.4,16,1.4,9,5.1,16
2018/6/1 8:40,1.5,16,1.5,9,4.3,16
2018/6/1 8:41,1.5,16,1.5,10,4.1,16
2018/6/1 8:42,1.4,16,1.5,12,1.8,4
2018/6/1 8:43,1.4,16,1.4,14,3.3,14
2018/6/1 8:44,1.4,16,1.4,15,2.7,16
2018/6/1 8:45,1.4,16,1.5,15,2,12
2018/6/1 8:46,1.4,16,1.4,15,1.5,12
2018/6/1 8:47,1.4,15,1.4,16,1.3,12
2018/6/1 8:48,1.5,15,1.5,16,1.6,10
2018/6/1 8:49,1.3,14,1.5,16,1.9,10
2018/6/1 8:50,1.2,13,1.3,16,1.5,7
2018/6/1 8:51,1.2,13,1.2,16,3.1,13
2018/6/1 8:52,1.4,12,1.4,16,3.1,12
2018/6/1 8:53,1.3,12,1.4,16,2.4,13
2018/6/1 8:54,1.2,12,1.3,16,1,8
2018/6/1 8:55,1.1,11,1.2,15,1.3,9
2018/6/1 8:56,1.1,11,1.1,15,2.2,9
2018/6/1 8:57,1.2,10,1.2,15,3.6,8
2018/6/1 8:58,1.2,10,1.2,15,2.4,9
2018/6/1 8:59,1.2,10,1.2,12,2.6,9
2018/6/1 9:00,1.3,10,1.3,12,2.4,9
2018/6/1 9:01,1.3,9,1.3,12,3.1,2
2018/6/1 9:02,1.2,9,1.3,12,2.9,16
2018/6/1 9:03,1.3,8,1.3,12,3.2,2
2018/6/1 9:04,1.4,7,1.4,7,3.1,3
2018/6/1 9:05,1.6,5,1.6,6,3.7,3
2018/6/1 9:06,1.8,4,1.8,5,4.5,14
2018/6/1 9:07,1.8,3,1.8,5,3.6,1
2018/6/1 9:08,1.9,3,1.9,3,4.2,3
2018/6/1 9:09,2,3,2,3,3.5,3
2018/6/1 9:10,2,2,2,3,3.3,4
2018/6/1 9:11,1.9,2,2,3,2.2,4
2018/6/1 9:12,1.9,3,2,3,2,4
2018/6/1 9:13,1.7,3,1.8,3,1.3,7
2018/6/1 9:14,1.6,3,1.7,3,1.1,7
2018/6/1 9:15,1.4,3,1.6,3,1,7
2018/6/1 9:16,1.3,4,1.4,3,3,6
2018/6/1 9:17,1.4,4,1.4,3,4.4,5
2018/6/1 9:18,1.3,4,1.4,3,6.4,5
2018/6/1 9:19,1.4,5,1.4,3,6.1,5
2018/6/1 9:20,1.7,5,1.7,2,8.5,2
2018/6/1 9:21,1.8,5,1.8,2,5.1,1
2018/6/1 9:22,1.8,4,1.8,3,2.2,3
2018/6/1 9:23,1.9,4,1.9,4,2.7,3
2018/6/1 9:24,2.1,4,2.1,4,4.2,2
2018/6/1 9:25,2.2,4,2.2,4,2.7,2
2018/6/1 9:26,2.2,3,2.2,4,2.6,16
2018/6/1 9:27,2.1,3,2.2,4,3,4
2018/6/1 9:28,2.1,3,2.1,4,3,4
2018/6/1 9:29,2.1,3,2.1,4,4.7,3
2018/6/1 9:30,1.9,3,2.1,4,4.4,3
2018/6/1 9:31,2,3,2,4,4.9,3
2018/6/1 9:32,2.3,3,2.3,3,6.3,3
2018/6/1 9:33,2.5,3,2.5,3,6,4
2018/6/1 9:34,2.6,3,2.6,3,4.9,2
2018/6/1 9:35,2.5,3,2.5,3,2.4,2
2018/6/1 9:36,2.6,3,2.6,3,3.3,13
2018/6/1 9:37,2.5,3,2.6,3,2.2,11
2018/6/1 9:38,2.5,2,2.5,3,3,16
2018/6/1 9:39,2.6,2,2.6,3,5.4,15
2018/6/1 9:40,2.5,16,2.6,3,3,12
2018/6/1 9:41,2.2,16,2.5,3,2,14
2018/6/1 9:42,2,15,2.2,3,2.7,16
2018/6/1 9:43,1.8,15,1.9,3,2.2,15
2018/6/1 9:44,1.6,15,1.7,3,2.5,14
2018/6/1 9:45,1.9,14,1.9,3,7.4,15
2018/6/1 9:46,2.1,15,2.1,3,6.2,15
2018/6/1 9:47,2.2,15,2.2,2,3.9,15
2018/6/1 9:48,2.2,15,2.2,2,4.3,16
2018/6/1 9:49,2.1,15,2.2,1,2.9,1
2018/6/1 9:50,2.1,16,2.1,16,4.4,14
2018/6/1 9:51,2.2,16,2.2,16,3.6,1
2018/6/1 9:52,2.3,16,2.3,16,4.2,1
2018/6/1 9:53,2.4,16,2.4,16,4.1,1
2018/6/1 9:54,2.3,16,2.4,16,1.6,4
2018/6/1 9:55,2.1,1,2.3,16,2.2,4
2018/6/1 9:56,1.8,1,2.1,16,2.1,6
2018/6/1 9:57,1.7,2,1.7,16,1.8,5
2018/6/1 9:58,1.7,2,1.7,16,4.5,15
2018/6/1 9:59,1.8,2,1.8,16,5.5,16
2018/6/1 10:00,1.9,2,1.9,16,8.7,15
2018/6/1 10:01,2.2,2,2.2,16,10.2,16
2018/6/1 10:02,2.2,1,2.3,16,5.8,15
2018/6/1 10:03,2.3,1,2.3,16,4.3,16
2018/6/1 10:04,2.4,16,2.4,1,5.8,16
2018/6/1 10:05,2.8,16,2.8,16,7.5,15
2018/6/1 10:06,3.1,16,3.1,16,6,15
2018/6/1 10:07,3.2,15,3.2,15,4.1,14
2018/6/1 10:08,3.2,15,3.2,15,4.1,14
2018/6/1 10:09,3.3,15,3.3,15,5.7,14
2018/6/1 10:10,3.3,15,3.4,15,8.1,16
2018/6/1 10:11,3.1,15,3.3,15,5,16
2018/6/1 10:12,3,15,3.1,15,3.6,15
2018/6/1 10:13,3.4,15,3.4,15,10.3,16
2018/6/1 10:14,3.9,15,3.9,15,10,15
2018/6/1 10:15,3.8,15,3.9,15,7.7,15
2018/6/1 10:16,3.9,15,3.9,15,7.2,16
2018/6/1 10:17,4.2,15,4.2,15,7.5,15
2018/6/1 10:18,4.4,15,4.4,15,8.2,16
2018/6/1 10:19,4.5,15,4.5,15,7.4,1
2018/6/1 10:20,4.5,15,4.6,15,9.4,15
2018/6/1 10:21,4.7,16,4.7,16,6.9,1
2018/6/1 10:22,4.9,16,4.9,16,7.1,16
2018/6/1 10:23,4.7,16,4.9,16,8.2,14
2018/6/1 10:24,4.7,16,4.7,16,10,14
2018/6/1 10:25,4.8,15,4.8,16,9.7,15
2018/6/1 10:26,4.8,15,4.9,16,8.3,15
2018/6/1 10:27,4.8,15,4.8,16,8.2,16
2018/6/1 10:28,4.6,15,4.8,16,6.5,15
2018/6/1 10:29,4.6,15,4.6,16,8.1,15
2018/6/1 10:30,4.5,16,4.6,16,5.6,1
2018/6/1 10:31,4.5,16,4.5,16,6.7,15
2018/6/1 10:32,4.5,16,4.5,16,7,16
2018/6/1 10:33,4.5,16,4.5,15,11,15
2018/6/1 10:34,4.4,16,4.6,15,10.7,16
2018/6/1 10:35,4.5,16,4.5,15,8.7,14
2018/6/1 10:36,4.5,16,4.5,15,7.8,16
2018/6/1 10:37,4.6,16,4.6,15,8.4,16
2018/6/1 10:38,4.6,16,4.6,15,7.6,16
2018/6/1 10:39,4.2,16,4.6,15,3,15
2018/6/1 10:40,4,16,4.2,16,6.7,15
2018/6/1 10:41,4.2,16,4.2,16,9.7,15
2018/6/1 10:42,4.4,16,4.4,16,9.1,15
2018/6/1 10:43,4.4,16,4.5,16,7.9,1
2018/6/1 10:44,4.3,16,4.3,16,7.1,15
2018/6/1 10:45,4.1,16,4.3,16,7.2,14
2018/6/1 10:46,4,16,4.2,16,6.4,15
2018/6/1 10:47,3.8,16,4,16,5.4,16
2018/6/1 10:48,3.8,16,3.8,16,7.6,15
2018/6/1 10:49,4.2,15,4.2,16,7.5,15
2018/6/1 10:50,4.4,16,4.5,16,5.7,2
2018/6/1 10:51,4,16,4.4,16,3.6,3
2018/6/1 10:52,3.9,16,4,16,6.2,14
2018/6/1 10:53,3.9,16,3.9,16,6.1,16
2018/6/1 10:54,3.9,16,3.9,16,7.4,15
2018/6/1 10:55,4,16,4,16,8.9,15
2018/6/1 10:56,4.1,16,4.1,16,8.7,15
2018/6/1 10:57,4.2,16,4.2,16,7.9,16
2018/6/1 10:58,4.4,16,4.4,16,9.5,16
2018/6/1 10:59,4.5,16,4.5,16,9.9,16
2018/6/1 11:00,4.5,16,4.5,16,7.7,15
2018/6/1 11:01,4.6,16,4.6,16,6.8,15
2018/6/1 11:02,4.7,16,4.7,16,7.9,16
2018/6/1 11:03,4.6,16,4.7,16,7.4,15
2018/6/1 11:04,4.4,16,4.6,16,6.5,16
2018/6/1 11:05,4.3,16,4.4,16,7.5,15
2018/6/1 11:06,4.2,16,4.3,16,7,16
2018/6/1 11:07,4.2,16,4.3,16,7,14
2018/6/1 11:08,4.1,16,4.2,16,7.8,15
2018/6/1 11:09,3.9,16,4.1,16,6.9,14
2018/6/1 11:10,3.9,16,3.9,16,8.6,16
2018/6/1 11:11,4.2,16,4.2,16,10.8,16
2018/6/1 11:12,4.4,16,4.4,16,10.9,15
2018/6/1 11:13,4.4,16,4.4,16,5.6,15
2018/6/1 11:14,4.4,16,4.4,16,4.1,15
2018/6/1 11:15,4.2,16,4.3,16,4.3,16
2018/6/1 11:16,4.2,16,4.2,16,7.5,15
2018/6/1 11:17,4.1,16,4.2,16,7.7,15
2018/6/1 11:18,4.2,16,4.2,16,7.4,14
2018/6/1 11:19,4.1,16,4.2,16,5,15
2018/6/1 11:20,4,16,4.1,16,4.3,1
2018/6/1 11:21,3.6,16,3.9,16,5.1,2
2018/6/1 11:22,3.2,16,3.6,16,4.9,2
2018/6/1 11:23,3.1,16,3.2,16,4.2,2
2018/6/1 11:24,3.2,16,3.2,16,5.4,15
2018/6/1 11:25,3.5,16,3.5,16,6.7,16
2018/6/1 11:26,3.5,16,3.5,16,6.7,16
2018/6/1 11:27,3.4,16,3.4,16,3.8,15
2018/6/1 11:28,3.1,16,3.3,16,4.9,16
2018/6/1 11:29,2.9,16,3.1,16,3.6,14
2018/6/1 11:30,2.9,16,2.9,16,5.5,16
2018/6/1 11:31,2.9,16,3,16,4.5,15
2018/6/1 11:32,3.1,16,3.1,16,7.2,14
2018/6/1 11:33,3.2,16,3.2,16,7.1,16
2018/6/1 11:34,3.1,15,3.2,16,5,15
2018/6/1 11:35,3.1,16,3.1,16,7.7,16
2018/6/1 11:36,3.3,16,3.3,16,8.9,15
2018/6/1 11:37,3.6,16,3.6,16,8.7,16
2018/6/1 11:38,3.7,15,3.7,15,7.1,16
2018/6/1 11:39,3.9,15,3.9,15,6,15